Starlink 1894

operational
NORAD ID: 46744 Int'l Des: 2020-074 Owner: SPXS Country: US Constellation: starlink
LEOCIRCULARSTARLINK_TYPE

关于 Starlink 1894

正在加载描述...

实时位置

正在加载3D地球...

即将过境

高度历史

Altitude vs Time

uPlot chart will show altitude changes over time

两行轨道根数

1 46744U 20074F 25304.66668980 .01062019 00000-0 39587-1 0 9993
2 46744 53.0570 180.4454 0001460 96.1070 272.9353 15.24459566 5808
Epoch: Oct 31, 2025 • Age: 3 hours

当前状态

高度 510.9 km
速度 7.61 km/s
星下点 -52.60°S, 117.38°E
发射日期 Oct 24, 2020
运行时间 5 years
类型 internet

技术详情

分类 Payload
质量 260.00 kg
干质量 248.00 kg
总质量 260.00 kg
长度 0.20 m
直径 2.80 m
跨度 9.00 m
形状 Box + pan
制造商 SPXS
平台类型 Starlink
阶段状态 In Orbit
所有者/国家 SPXS/US

大型星座

Loading constellations...